Location: Unspecified
(0.0000°N, 0.0000°E)
Time: 10:13:42
(UTC+00:00)

Tiros 1 - Visible Passes

Search period start: 24 August 2016 00:00
Search period end: 03 September 2016 00:00
Orbit: 631 x 665 km, 48.4° (Epoch: 23 August)

Date Brightness Start Highest point End Pass type
(mag) Time Alt. Az. Time Alt. Az. Time Alt. Az.
24 Aug 7.6 04:17:29 49° SSE 04:18:01 52° SE 04:22:30 10° NE visible
25 Aug 7.5 04:43:32 40° WNW 04:44:15 43° NW 04:48:38 10° NNE visible
26 Aug 9.8 03:31:48 17° ENE 03:31:48 17° ENE 03:32:55 10° NE visible
26 Aug 9.0 05:09:32 13° WNW 05:10:32 13° NW 05:12:46 10° NNW visible
27 Aug 9.2 03:57:43 19° NNE 03:57:43 19° NNE 03:59:11 10° NNE visible
28 Aug 9.6 04:23:34 10° NNW 04:23:34 10° NNW 04:23:38 10° NNW visible
